STPSAT-6

Last updated on Sat Apr 11 2026 00:02:55 GMT+0000 (Coordinated Universal Time)

1 49817U 21118A 26100.00120858 -.00000043 00000+0 00000+0 0 9991 2 49817 0.1441 84.4716 0002051 255.6753 106.6649 1.00272638 15885
UTC large
Height (km)
Speed (km/s)
/
Latitude / Longitude
Inclination (degrees)
Orbital Period (minutes)
Azimuth
Elevation
Range (km)
Doppler Factor

Next 0 passes for location: London (51.5072 / 0.1276)

Sorry there are no passes over London.
STPSAT-6